TimeEDT,TemperatureF,Dew PointF,Humidity,Sea Level PressureIn,VisibilityMPH,Wind Direction,Wind SpeedMPH,Gust SpeedMPH,PrecipitationIn,Events,Conditions,WindDirDegrees,DateUTC
12:53 AM,35.1,33.1,92,29.88,6.0,NNW,13.8,23.0,0.06,Snow,Light Snow,330,2012-10-06 04:53:00
1:53 AM,36.0,33.1,89,29.90,9.0,NW,13.8,23.0,0.04,Rain,Light Rain,320,2012-10-06 05:53:00
2:53 AM,35.1,33.1,92,29.91,8.0,NW,17.3,25.3,0.02,Rain,Light Rain,320,2012-10-06 06:53:00
3:53 AM,35.1,33.1,92,29.92,6.0,NNW,17.3,24.2,0.03,Snow,Light Snow,330,2012-10-06 07:53:00
4:53 AM,35.1,33.1,92,29.93,9.0,NNW,16.1,26.5,0.03,Snow,Light Snow,330,2012-10-06 08:53:00
5:43 AM,33.8,32.0,93,29.92,3.0,North,12.7,20.7,0.00,Snow,Light Snow,360,2012-10-06 09:43:00
5:45 AM,33.8,32.0,93,29.92,1.8,North,16.1,21.9,N/A,Snow,Light Snow,350,2012-10-06 09:45:00
5:53 AM,33.1,32.0,96,29.96,1.0,North,11.5,21.9,0.00,Snow,Light Snow,360,2012-10-06 09:53:00
5:59 AM,33.8,32.0,93,29.92,0.8,North,11.5,19.6,0.00,Snow,Light Snow,10,2012-10-06 09:59:00
6:16 AM,33.8,32.0,93,29.93,1.0,North,10.4,19.6,0.00,Snow,Light Snow,360,2012-10-06 10:16:00
6:39 AM,33.8,30.2,87,29.93,8.0,NNW,11.5,-,0.00,Snow,Light Snow,340,2012-10-06 10:39:00
6:49 AM,33.8,30.2,87,29.94,10.0,NNW,13.8,23.0,0.00,,Overcast,340,2012-10-06 10:49:00
6:53 AM,34.0,30.9,89,29.98,10.0,NNW,12.7,-,0.00,,Overcast,340,2012-10-06 10:53:00
7:03 AM,33.8,30.2,87,29.95,10.0,NNW,12.7,-,0.01,,Overcast,330,2012-10-06 11:03:00
7:34 AM,33.8,32.0,93,29.96,2.5,North,12.7,24.2,0.02,Snow,Light Snow,360,2012-10-06 11:34:00
7:48 AM,33.8,32.0,93,29.96,1.5,North,9.2,-,0.03,Snow,Light Snow,360,2012-10-06 11:48:00
7:53 AM,33.1,32.0,96,30.00,2.0,NNW,11.5,-,0.03,Snow,Light Snow,340,2012-10-06 11:53:00
8:00 AM,33.8,32.0,93,29.97,1.8,North,9.2,19.6,0.00,Snow,Light Snow,10,2012-10-06 12:00:00
8:12 AM,33.8,30.2,87,29.97,3.0,North,10.4,19.6,0.00,Snow,Light Snow,350,2012-10-06 12:12:00
8:30 AM,33.8,30.2,87,29.97,1.5,NNW,10.4,19.6,0.01,Snow,Light Snow,330,2012-10-06 12:30:00
8:35 AM,33.8,32.0,93,29.98,0.8,NNW,16.1,23.0,0.01,Snow,Light Snow,340,2012-10-06 12:35:00
8:45 AM,33.8,32.0,93,29.98,2.0,North,10.4,21.9,0.01,Snow,Light Snow,350,2012-10-06 12:45:00
8:53 AM,34.0,32.0,92,30.02,4.0,North,12.7,19.6,0.01,Snow,Light Snow,350,2012-10-06 12:53:00
9:13 AM,35.6,30.2,81,29.99,9.0,NNW,18.4,25.3,N/A,,Overcast,340,2012-10-06 13:13:00
9:53 AM,35.1,30.9,85,30.05,7.0,North,12.7,17.3,0.07,Snow,Light Snow,350,2012-10-06 13:53:00
10:09 AM,35.6,30.2,81,30.02,9.0,North,13.8,23.0,0.02,Snow,Light Snow,350,2012-10-06 14:09:00
10:36 AM,35.6,30.2,81,30.02,9.0,North,13.8,20.7,0.06,Snow,Light Snow,350,2012-10-06 14:36:00
10:46 AM,35.6,30.2,81,30.03,10.0,NNW,11.5,-,0.07,,Overcast,340,2012-10-06 14:46:00
10:53 AM,36.0,30.0,79,30.07,10.0,North,15.0,21.9,0.08,,Overcast,350,2012-10-06 14:53:00
11:53 AM,37.0,30.0,76,30.09,10.0,NNW,13.8,-,0.07,,Overcast,340,2012-10-06 15:53:00
12:35 PM,37.4,32.0,81,30.07,9.0,North,12.7,21.9,0.02,Snow,Light Snow,10,2012-10-06 16:35:00
12:42 PM,39.2,30.2,70,30.07,9.0,North,16.1,23.0,0.02,,Overcast,360,2012-10-06 16:42:00
12:53 PM,37.9,32.0,79,30.12,7.0,NNW,15.0,-,0.02,Snow,Light Snow,330,2012-10-06 16:53:00
1:02 PM,33.8,30.2,87,30.08,1.0,NNW,10.4,20.7,0.00,Snow,Light Snow,340,2012-10-06 17:02:00
1:09 PM,35.6,32.0,87,30.08,4.0,NNW,6.9,-,0.01,Snow,Light Snow,330,2012-10-06 17:09:00
1:16 PM,35.6,33.8,93,30.08,9.0,NNW,8.1,-,0.01,,Overcast,330,2012-10-06 17:16:00
1:53 PM,39.0,28.9,67,30.12,10.0,NNW,18.4,25.3,0.01,,Mostly Cloudy,330,2012-10-06 17:53:00
2:53 PM,41.0,28.9,62,30.12,10.0,NNW,12.7,27.6,N/A,,Mostly Cloudy,330,2012-10-06 18:53:00
3:53 PM,43.0,27.0,53,30.11,10.0,NW,15.0,27.6,N/A,,Overcast,320,2012-10-06 19:53:00
4:53 PM,39.9,30.9,70,30.11,10.0,NW,10.4,-,0.00,,Partly Cloudy,310,2012-10-06 20:53:00
5:53 PM,39.0,27.0,62,30.12,10.0,NW,11.5,20.7,N/A,,Mostly Cloudy,320,2012-10-06 21:53:00
6:53 PM,39.0,25.0,57,30.13,10.0,NW,13.8,18.4,N/A,,Overcast,320,2012-10-06 22:53:00
7:53 PM,37.9,23.0,55,30.14,10.0,NW,6.9,-,N/A,,Overcast,320,2012-10-06 23:53:00
8:53 PM,35.1,23.0,61,30.14,10.0,WNW,5.8,-,N/A,,Mostly Cloudy,290,2012-10-07 00:53:00
9:53 PM,35.1,26.1,70,30.14,10.0,West,3.5,-,N/A,,Overcast,270,2012-10-07 01:53:00
10:53 PM,36.0,27.0,70,30.14,10.0,West,3.5,-,N/A,,Overcast,260,2012-10-07 02:53:00
11:53 PM,37.9,28.9,70,30.12,10.0,West,6.9,-,0.00,,Overcast,280,2012-10-07 03:53:00